Location: Oroua River
(40.4333°S, 175.4333°E)
Time: 13:51:46
(UTC+00:00)

Cosmos 2219 - Pass Details

Date: 03 February 2023
Orbit: 835 x 858 km, 71.1° (Epoch: 23 March)

Event Time Altitude Azimuth Distance (km) Brightness Sun altitude
Rises 16:10:54 0° 199° (SSW) 3,468 6.6 -13.8°
Reaches altitude 10° 16:13:29 10° 193° (SSW) 2,526 6.0 -13.4°
Maximum altitude 16:19:06 48° 118° (ESE) 1,126 4.4 -12.5°
Drops below altitude 10° 16:24:38 10° 44° (NE) 2,495 5.8 -11.6°
Sets 16:27:10 0° 38° (NE) 3,421 6.4 -11.2°
